Regional Weather Roundup
Issued by NWS Little Rock, AR

Home | Current Version | Previous Version | Graphics & Text | Print | Product List | Glossary On
Versions: 1 2 3 4 5 6 7 8 9 10 11 12 13 14 15 16 17 18 19 20 21 22 23 24 25 26 27 28 29 30 31 32 33 34 35 36 37 38 39 40 41 42 43 44 45 46 47 48 49 50
844
ASUS44 KLZK 211812
RWRLZK

WEATHER ROUNDUP FOR ARKANSAS
NATIONAL WEATHER SERVICE LITTLE ROCK AR
1200 PM CST SUN JAN 21 2018

NOTE: "FAIR" INDICATES FEW OR NO CLOUDS BELOW 12,000 FEET WITH NO
SIGNIFICANT WEATHER AND/OR OBSTRUCTIONS TO VISIBILITY.

ARZ001-003-010-029-211900-
NORTHWEST ARKANSAS

CITY           SKY/WX    TMP DP  RH WIND       PRES   REMARKS
FAYETTEVILLE   CLOUDY    66  57  72 S21G32    29.87F
6HR MIN TEMP:  57; 6HR MAX TEMP:  68;

FORT SMITH     CLOUDY    69  58  67 S15G26    29.88F
6HR MIN TEMP:  48; 6HR MAX TEMP:  70; 6HR PCP: TRACE;

HARRISON       PTSUNNY   66  55  67 S14G21    29.91F
6HR MIN TEMP:  53; 6HR MAX TEMP:  66;

BENTONVILLE    CLOUDY    67  55  65 S16G26    29.87F
6HR MIN TEMP:  56; 6HR MAX TEMP:  67;

ROGERS         PTSUNNY   66  54  65 S26G33    29.86F
6HR MIN TEMP:  56; 6HR MAX TEMP:  67;

SILOAM SPGS    PTSUNNY   67  55  65 S20G29    29.86F
6HR MIN TEMP:  56; 6HR MAX TEMP:  68;

HIGHFILL       LGT RAIN  67  54  63 S21G35    29.85F
6HR MIN TEMP:  57; 6HR MAX TEMP:  68; 6HR PCP: TRACE;

SPRINGDALE     PTSUNNY   66  55  68 S16G25    29.89F
$$

ARZ004-005-016-211900-
NORTH CENTRAL ARKANSAS

CITY           SKY/WX    TMP DP  RH WIND       PRES   REMARKS
BATESVILLE     CLOUDY    59  56  89 S9G16     29.99F
6HR MIN TEMP:  56; 6HR MAX TEMP:  60; 6HR PCP: TRACE;

MTN HOME       CLOUDY    64  58  80 SW13G23   29.92F
6HR MIN TEMP:  53; 6HR MAX TEMP:  66; 6HR PCP: TRACE;

$$

ARZ040-041-211900-
WEST CENTRAL ARKANSAS

CITY           SKY/WX    TMP DP  RH WIND       PRES   REMARKS
MENA           CLOUDY    66  64  94 S7G17     29.93F
MOUNT IDA      CLOUDY    65  60  84 VRB6      29.93F
6HR MIN TEMP:  62; 6HR MAX TEMP:  66; 6HR PCP: TRACE;

$$

ARZ009-017-025-026-028-211900-
NORTHEAST ARKANSAS

CITY           SKY/WX    TMP DP  RH WIND       PRES   REMARKS
JONESBORO      CLOUDY    58  55  90 S12       30.02F
6HR MIN TEMP:  52; 6HR MAX TEMP:  58;

NEWPORT        FAIR      57  54  89 S17       30.01F
6HR MIN TEMP:  51; 6HR MAX TEMP:  57; 6HR PCP: TRACE;

WALNUT RIDGE   CLOUDY    55  53  93 S13       30.00F
6HR MIN TEMP:  50; 6HR MAX TEMP:  55;

BLYTHEVILLE    CLOUDY    60  60 100 S16G28    30.05F
6HR MIN TEMP:  54; 6HR MAX TEMP:  60;

$$

ARZ022-023-033-042-044-211900-
CENTRAL ARKANSAS

CITY           SKY/WX    TMP DP  RH WIND       PRES   REMARKS
LITTLE ROCK    CLOUDY    63  58  83 S10       30.01F
6HR MIN TEMP:  59; 6HR MAX TEMP:  63; 6HR PCP: TRACE;

N LITTLE ROCK    N/A     60  58  92 S9        29.94F
6HR MIN TEMP:  58; 6HR MAX TEMP:  60;

JACKSONVILLE   CLOUDY    61  58  92 SE8       29.99F
6HR MIN TEMP:  58; 6HR MAX TEMP:  61; 6HR PCP: TRACE;

SEARCY         CLOUDY    59  59 100 S15       30.02F
6HR MIN TEMP:  56; 6HR MAX TEMP:  60;

HOT SPRINGS    CLOUDY    63  61  93 S9        29.98F
6HR MIN TEMP:  61; 6HR MAX TEMP:  63; 6HR PCP: TRACE;

RUSSELLVILLE   CLOUDY    65  60  84 VRB6      29.94F
6HR MIN TEMP:  58; 6HR MAX TEMP:  65; 6HR PCP:  0.02;

CLINTON        CLOUDY    63  59  88 S9G16     29.97F
$$

ARZ036-211900-
EAST ARKANSAS

CITY           SKY/WX    TMP DP  RH WIND       PRES   REMARKS
WEST MEMPHIS   PTSUNNY   63  57  81 S18G25    30.05F
6HR MIN TEMP:  52; 6HR MAX TEMP:  62;

$$

ARZ050-053-066-070-073-211900-
SOUTHWEST ARKANSAS

CITY           SKY/WX    TMP DP  RH WIND       PRES   REMARKS
ARKADELPHIA    CLOUDY    66  60  81 S10G18    29.99F
6HR MIN TEMP:  60; 6HR MAX TEMP:  66;

CAMDEN         CLOUDY    66  57  72 S10       30.01F
TEXARKANA      CLOUDY    66  61  84 S15       29.97F
6HR MIN TEMP:  61; 6HR MAX TEMP:  66; 6HR PCP: TRACE;

EL DORADO      CLOUDY    64  61  90 SE14G21   30.03F
6HR MIN TEMP:  59; 6HR MAX TEMP:  64;

DE QUEEN       CLOUDY    68  62  81 S15G23    29.92F
6HR MIN TEMP:  63; 6HR MAX TEMP:  69;

$$

ARZ056-057-069-211900-
SOUTHEAST ARKANSAS

CITY           SKY/WX    TMP DP  RH WIND       PRES   REMARKS
PINE BLUFF     CLOUDY    62  56  80 S14       30.03F
6HR MIN TEMP:  58; 6HR MAX TEMP:  62;

STUTTGART      CLOUDY    61  56  83 S17       30.03F
6HR MIN TEMP:  54; 6HR MAX TEMP:  61;

MONTICELLO     CLOUDY    63  55  75 S10G17    30.06F
6HR MIN TEMP:  57; 6HR MAX TEMP:  63;


$$






USA.gov is the U.S. government's official web portal to all federal, state and local government web resources and services.